WXM80 ListenWXM80 Stop

You find our weather info also at:

UK Metoffice

WeatherCloud

Weather Underground

Northeastern Weather Network

AWEKAS

Citizen Weather Observer Program (CWOP)

HAMweather, WeatherForYou, PWS Weather


Weather Underground History page Text

Daily Summary for October 10, 2017 Units:  Metric    English   Both
« Previous Day
Next Day »
Daily Weekly Monthly Yearly Custom
  High: Low: Average:
Temperature: 28.1 °C 17.2 °C 21.9 °C
Dew Point: 23.2 °C 16 °C 18.9 °C
Humidity: 98 % 61 % 84 %
Wind Speed: 11.7 km/h 0 km/h 1.8 km/h
Wind Gust: 18.5 km/h - -
Wind:- - West
Pressure: 1017.8 hPa 999.9 hPa -
Precipitation: 0 mm    
Historical Graphs
 
 
Tabular Data for October 10, 2017
Time Temperature Dew Point Pressure Wind Wind Speed Wind Gust Humidity Rainfall Rate (Hourly)
00:07 23.2 °C 22.8 °C 1007.7 hPa SW 4.2 km/h 7.4 km/h 98 % 0 mm
00:12 23.3 °C 22.9 °C 1007 hPa SW 1 km/h 13 km/h 98 % 0 mm
00:13 23.2 °C 22.9 °C 1007.3 hPa WSW 4.2 km/h 6.4 km/h 98 % 0 mm
00:18 23.3 °C 22.9 °C 1008.4 hPa SW 2.9 km/h 14.8 km/h 98 % 0 mm
00:22 23.3 °C 23 °C 1006.3 hPa SSW 6.6 km/h 16.7 km/h 98 % 0 mm
00:27 23.4 °C 23.1 °C 1006.7 hPa West 3.9 km/h 5.6 km/h 98 % 0 mm
00:32 23.4 °C 23.1 °C 1008 hPa SW 3.2 km/h 18.5 km/h 98 % 0 mm
00:37 23.4 °C 23.1 °C 1005 hPa WSW 3.4 km/h 9.3 km/h 98 % 0 mm
00:42 23.5 °C 23.2 °C 1003.3 hPa SW 1.8 km/h 9.3 km/h 98 % 0 mm
00:47 23.5 °C 23.2 °C 1004.3 hPa SW 6.3 km/h 11.1 km/h 98 % 0 mm
00:52 23.5 °C 23.2 °C 1005 hPa WSW 4 km/h 9.3 km/h 98 % 0 mm
00:57 23.5 °C 23.2 °C 1004.6 hPa West 2.4 km/h 11.1 km/h 98 % 0 mm
01:02 23.4 °C 22.9 °C 1005 hPa WSW 11.7 km/h 18.5 km/h 97 % 0 mm
01:07 23.4 °C 22.9 °C 1008.7 hPa West 7.1 km/h 11.1 km/h 97 % 0 mm
01:13 23.4 °C 22.9 °C 1007.7 hPa SW 5 km/h 7.4 km/h 97 % 0 mm
01:18 23.3 °C 22.8 °C 1007.7 hPa West 4.2 km/h 7.4 km/h 97 % 0 mm
01:23 23.3 °C 22.8 °C 1008.4 hPa SW 1.9 km/h 5.6 km/h 97 % 0 mm
01:28 23.2 °C 22.5 °C 1005.3 hPa West 7.4 km/h 13 km/h 96 % 0 mm
01:33 23.1 °C 22.2 °C 999.9 hPa WNW 2.1 km/h 11.1 km/h 95 % 0 mm
01:38 22.9 °C 22.1 °C 1008 hPa NW 2.9 km/h 5.6 km/h 95 % 0 mm
01:43 22.9 °C 21.9 °C 1006.3 hPa WNW 4 km/h 7.4 km/h 94 % 0 mm
01:48 22.8 °C 21.8 °C 1004.6 hPa West 1.4 km/h 5.6 km/h 94 % 0 mm
01:53 22.8 °C 21.8 °C 1005.3 hPa WNW 2.6 km/h 5.6 km/h 94 % 0 mm
02:03 22.6 °C 21.2 °C 1004.6 hPa WNW 6.6 km/h 13 km/h 92 % 0 mm
02:08 22.6 °C 21.2 °C 1007 hPa NW 3.7 km/h 8 km/h 92 % 0 mm
02:13 22.5 °C 21.1 °C 1002.3 hPa West 9.2 km/h 16.7 km/h 92 % 0 mm
02:18 22.4 °C 21.1 °C 1007.7 hPa WNW 2.6 km/h 6.4 km/h 92 % 0 mm
02:23 22.4 °C 20.8 °C 1006.3 hPa West 4.3 km/h 7.4 km/h 91 % 0 mm
02:28 22.3 °C 20.8 °C 1007.3 hPa WNW 2.7 km/h 14.5 km/h 91 % 0 mm
02:33 22.3 °C 20.7 °C 1009 hPa WNW 4.8 km/h 8 km/h 91 % 0 mm
02:38 22.2 °C 20.7 °C 1006.7 hPa WNW 3.1 km/h 7.4 km/h 91 % 0 mm
02:43 22.2 °C 20.6 °C 1005.3 hPa WSW 2.7 km/h 9.3 km/h 91 % 0 mm
02:48 22.1 °C 20.6 °C 1007 hPa West 3.2 km/h 5.6 km/h 91 % 0 mm
02:53 22.1 °C 20.5 °C 1008 hPa West 5.6 km/h 9.3 km/h 91 % 0 mm
03:03 21.9 °C 20.3 °C 1008.4 hPa WSW 5.3 km/h 7.4 km/h 91 % 0 mm
03:08 21.8 °C 20.3 °C 1008 hPa NW 2.3 km/h 5.6 km/h 91 % 0 mm
03:13 21.8 °C 20.1 °C 1007.7 hPa NW 1 km/h 5.6 km/h 90 % 0 mm
03:18 21.7 °C 20.1 °C 1009 hPa West 3.4 km/h 7.4 km/h 91 % 0 mm
03:23 21.6 °C 20.1 °C 1004.3 hPa West 1.4 km/h 4.8 km/h 91 % 0 mm
03:28 21.6 °C 20 °C 1006.3 hPa WSW 3.7 km/h 5.6 km/h 91 % 0 mm
03:33 21.5 °C 19.9 °C 1006.3 hPa WNW 3.9 km/h 8 km/h 91 % 0 mm
03:38 21.4 °C 19.8 °C 1005 hPa WSW 1.4 km/h 5.6 km/h 91 % 0 mm
03:43 21.3 °C 19.8 °C 1004.3 hPa WSW 2.9 km/h 5.6 km/h 91 % 0 mm
03:48 21.3 °C 19.7 °C 1004.6 hPa WSW 2.4 km/h 8 km/h 91 % 0 mm
03:53 21.2 °C 19.7 °C 1004.3 hPa WSW 1 km/h 1.9 km/h 91 % 0 mm
03:58 21.2 °C 19.6 °C 1008.4 hPa West 3.9 km/h 9.3 km/h 91 % 0 mm
04:04 21.1 °C 19.6 °C 1008.7 hPa WNW 5 km/h 11.1 km/h 91 % 0 mm
04:09 21.1 °C 19.6 °C 1008.4 hPa WNW 2.1 km/h 5.6 km/h 91 % 0 mm
04:14 20.9 °C 19.4 °C 1001.2 hPa WSW 2.6 km/h 8 km/h 91 % 0 mm
04:19 20.9 °C 19.4 °C 1001.9 hPa WNW 3.9 km/h 5.6 km/h 91 % 0 mm
04:24 20.8 °C 19.3 °C 1006.3 hPa WNW 2.9 km/h 5.6 km/h 91 % 0 mm
04:29 20.8 °C 19.3 °C 1007 hPa West 1.4 km/h 5.6 km/h 91 % 0 mm
04:34 20.7 °C 19.2 °C 1003.9 hPa WNW 1.4 km/h 5.6 km/h 91 % 0 mm
04:39 20.7 °C 19.3 °C 1003.6 hPa WNW 0.3 km/h 1.9 km/h 92 % 0 mm
04:44 20.6 °C 19.1 °C 1007 hPa West 2.9 km/h 5.6 km/h 91 % 0 mm
04:49 20.6 °C 19.2 °C 1008.7 hPa West 3.1 km/h 5.6 km/h 92 % 0 mm
04:54 20.5 °C 19.2 °C 1008.7 hPa WNW 3.9 km/h 5.6 km/h 92 % 0 mm
04:59 20.4 °C 19.1 °C 1010 hPa WNW 0.3 km/h 4.8 km/h 92 % 0 mm
05:04 20.3 °C 19 °C 1008.4 hPa WNW 3.1 km/h 5.6 km/h 92 % 0 mm
05:09 20.3 °C 19 °C 1008.7 hPa WNW 4.2 km/h 5.6 km/h 92 % 0 mm
05:14 20.3 °C 18.9 °C 1010 hPa West 2.4 km/h 5.6 km/h 92 % 0 mm
05:19 20.2 °C 18.9 °C 1008.4 hPa West 2.9 km/h 5.6 km/h 92 % 0 mm
05:24 20.2 °C 18.8 °C 1010.7 hPa NW 1.3 km/h 5.6 km/h 92 % 0 mm
05:29 20.2 °C 18.8 °C 1007.7 hPa WNW 1.1 km/h 4.8 km/h 92 % 0 mm
05:34 20.1 °C 18.8 °C 1002.3 hPa WNW 0.3 km/h 5.6 km/h 92 % 0 mm
05:39 20.1 °C 18.9 °C 1004.6 hPa WNW 0.3 km/h   93 % 0 mm
05:44 20 °C 18.8 °C 1003.9 hPa WNW 0.8 km/h 3.7 km/h 93 % 0 mm
05:49 19.9 °C 18.8 °C 1003.3 hPa WNW 0.3 km/h 3.2 km/h 93 % 0 mm
05:54 19.9 °C 18.8 °C 1006 hPa WNW 0.2 km/h 5.6 km/h 93 % 0 mm
05:55 19.9 °C 18.8 °C 1006 hPa NW 1.3 km/h 5.6 km/h 93 % 0 mm
06:00 19.8 °C 18.7 °C 1011.7 hPa NW 0.3 km/h 5.6 km/h 93 % 0 mm
06:05 19.8 °C 18.6 °C 1007.3 hPa NW 0.2 km/h 3.7 km/h 93 % 0 mm
06:10 19.7 °C 18.6 °C 1004.6 hPa NNW 1.1 km/h 3.7 km/h 93 % 0 mm
06:15 19.7 °C 18.6 °C 1006 hPa NNW 0.5 km/h 3.2 km/h 93 % 0 mm
06:20 19.7 °C 18.5 °C 1006 hPa NW 0.5 km/h 5.6 km/h 93 % 0 mm
06:25 19.6 °C 18.4 °C 1009.7 hPa NNW 2.1 km/h 4.8 km/h 93 % 0 mm
06:30 19.6 °C 18.4 °C 1010.7 hPa NNW 1.6 km/h 6.4 km/h 93 % 0 mm
06:35 19.6 °C 18.4 °C 1010.4 hPa NNW 1.6 km/h 6.4 km/h 93 % 0 mm
06:45 19.4 °C 18.1 °C 1007.7 hPa NNW 1.6 km/h 8 km/h 92 % 0 mm
06:51 19.4 °C 18.1 °C 1010.4 hPa NNW 1.6 km/h 8 km/h 92 % 0 mm
06:56 19.3 °C 18 °C 1012.8 hPa NNW 0.2 km/h 3.7 km/h 92 % 0 mm
07:01 19.3 °C 18 °C 1012.8 hPa NW 0.8 km/h 4.8 km/h 92 % 0 mm
07:06 19.3 °C 17.9 °C 1011.4 hPa NW 1.1 km/h 3.7 km/h 92 % 0 mm
07:11 19.3 °C 17.8 °C 1008.4 hPa NNW 0.2 km/h 1.9 km/h 91 % 0 mm
07:16 19.2 °C 17.7 °C 1011.1 hPa NNW 1.1 km/h 3.7 km/h 91 % 0 mm
07:21 19.2 °C 17.7 °C 1011.4 hPa North 1.4 km/h 5.6 km/h 91 % 0 mm
07:26 19.2 °C 17.7 °C 1011.7 hPa WNW 1.1 km/h 5.6 km/h 91 % 0 mm
07:31 19.2 °C 17.7 °C 1010.7 hPa NW 0.3 km/h 5.6 km/h 91 % 0 mm
07:36 19.2 °C 17.7 °C 1013.1 hPa NW 0.3 km/h 3.7 km/h 91 % 0 mm
07:41 19.2 °C 17.7 °C 1014.1 hPa Calm   1.9 km/h 91 % 0 mm
07:46 19.2 °C 17.7 °C 1010 hPa NNW 0.2 km/h 1.9 km/h 91 % 0 mm
07:51 19.2 °C 17.7 °C 1005 hPa NNW 0.3 km/h 1.9 km/h 91 % 0 mm
07:53 19.3 °C 17.8 °C 1003.9 hPa NNW 0.6 km/h 1.9 km/h 91 % 0 mm
07:58 19.3 °C 17.8 °C 1011.1 hPa NNW 3.4 km/h 5.6 km/h 91 % 0 mm
08:03 19.3 °C 17.8 °C 1009.4 hPa NNW 1.9 km/h 5.6 km/h 91 % 0 mm
08:08 19.3 °C 17.7 °C 1012.4 hPa NNW 0.3 km/h 1.9 km/h 90 % 0 mm
08:13 19.3 °C 17.7 °C 1009.4 hPa NNW 2.7 km/h 5.6 km/h 90 % 0 mm
08:18 19.4 °C 17.7 °C 1009 hPa WNW 0.5 km/h 5.6 km/h 90 % 0 mm
08:23 19.4 °C 17.8 °C 1008.7 hPa NW 0.2 km/h 5.6 km/h 90 % 0 mm
08:28 19.4 °C 17.8 °C 1010 hPa North 3.1 km/h 7.4 km/h 90 % 0 mm
08:33 19.5 °C 17.8 °C 1007 hPa NNE 1.3 km/h 5.6 km/h 90 % 0 mm
08:38 19.6 °C 17.7 °C 1009 hPa North 0.3 km/h 1.9 km/h 89 % 0 mm
08:43 19.6 °C 17.7 °C 1008.4 hPa North 0.3 km/h 5.6 km/h 89 % 0 mm
08:48 19.6 °C 17.6 °C 1012.4 hPa NNE 4.3 km/h 7.4 km/h 88 % 0 mm
08:53 19.7 °C 17.8 °C 1001.9 hPa North 0.2 km/h 3.2 km/h 89 % 0 mm
08:58 19.7 °C 17.7 °C 1012.4 hPa NNE 1 km/h 1.9 km/h 88 % 0 mm
09:03 19.7 °C 17.7 °C 1012.4 hPa NNE 0.5 km/h 1.9 km/h 88 % 0 mm
09:08 19.8 °C 17.7 °C 1013.4 hPa NNW 1.9 km/h 5.6 km/h 88 % 0 mm
09:13 19.8 °C 17.7 °C 1011.7 hPa Calm   1.9 km/h 88 % 0 mm
09:18 19.8 °C 17.8 °C 1013.1 hPa NW 2.3 km/h 5.6 km/h 88 % 0 mm
09:23 19.8 °C 17.6 °C 1013.1 hPa Calm   5.6 km/h 87 % 0 mm
09:28 19.9 °C 17.8 °C 1013.1 hPa NW 1.4 km/h 5.6 km/h 88 % 0 mm
09:33 19.9 °C 17.7 °C 1013.1 hPa NW 3.1 km/h 5.6 km/h 87 % 0 mm
09:38 19.9 °C 17.7 °C 1002.9 hPa NW 1.6 km/h 4.8 km/h 87 % 0 mm
09:44 20 °C 17.8 °C 1011.1 hPa NNW 0.5 km/h 1.9 km/h 87 % 0 mm
09:49 20.1 °C 17.8 °C 1011.4 hPa NNW 1.4 km/h 5.6 km/h 87 % 0 mm
09:54 20.1 °C 17.7 °C 1011.4 hPa WNW 1.6 km/h 5.6 km/h 86 % 0 mm
09:59 20.2 °C 18 °C 1014.4 hPa Calm     87 % 0 mm
10:09 20.4 °C 18.2 °C 1005 hPa WNW 4.7 km/h 9.3 km/h 87 % 0 mm
10:14 20.5 °C 18.1 °C 1011.7 hPa WNW 3.2 km/h 5.6 km/h 86 % 0 mm
10:19 20.7 °C 18.2 °C 1007.7 hPa WNW 2.1 km/h 6.4 km/h 86 % 0 mm
10:20 20.7 °C 18.3 °C 1014.1 hPa West 3.1 km/h 9.3 km/h 86 % 0 mm
10:25 20.8 °C 18.4 °C 1007.3 hPa WSW 3.2 km/h 7.4 km/h 86 % 0 mm
10:30 20.9 °C 18.3 °C 1012.1 hPa West 2.7 km/h 5.6 km/h 85 % 0 mm
10:35 21.1 °C 18.2 °C 1012.1 hPa West 0.2 km/h 3.7 km/h 84 % 0 mm
10:40 21.2 °C 18.4 °C 1014.4 hPa WSW 4.8 km/h 8 km/h 84 % 0 mm
10:45 21.4 °C 18.4 °C 1014.1 hPa WSW 3.2 km/h 7.4 km/h 83 % 0 mm
10:50 21.6 °C 18.7 °C 1014.1 hPa WNW 2.7 km/h 11.3 km/h 84 % 0 mm
10:55 21.7 °C 18.7 °C 1014.1 hPa West 2.7 km/h 3.2 km/h 83 % 0 mm
11:00 21.9 °C 18.9 °C 1007 hPa WNW 5.1 km/h 8 km/h 83 % 0 mm
11:05 22.2 °C 18.9 °C 1010.4 hPa West 6.3 km/h 11.1 km/h 82 % 0 mm
11:10 22.3 °C 19.1 °C 1013.4 hPa SSW 6 km/h 11.3 km/h 82 % 0 mm
11:13 22.4 °C 19.2 °C 1013.8 hPa NW 1.4 km/h 9.3 km/h 82 % 0 mm
11:18 22.7 °C 19.4 °C 1011.1 hPa WNW 0.6 km/h 4.8 km/h 82 % 0 mm
11:23 22.9 °C 19.7 °C 1015.1 hPa WSW 1.4 km/h 5.6 km/h 82 % 0 mm
11:28 23.3 °C 19.8 °C 1014.1 hPa SW 3.5 km/h 6.4 km/h 81 % 0 mm
11:38 24 °C 20.1 °C 1014.1 hPa WSW 1.8 km/h 5.6 km/h 79 % 0 mm
11:43 24.4 °C 19.7 °C 1013.4 hPa WSW 4.3 km/h 11.3 km/h 75 % 0 mm
11:48 24.6 °C 19.8 °C 1013.4 hPa WSW 1.8 km/h 5.6 km/h 75 % 0 mm
11:53 24.8 °C 19.8 °C 1014.4 hPa SSW 2.4 km/h 9.7 km/h 74 % 0 mm
11:58 25 °C 20.1 °C 1013.1 hPa SW 1.8 km/h 3.7 km/h 74 % 0 mm
12:03 25.2 °C 20.2 °C 1007 hPa SW 1.8 km/h 5.6 km/h 74 % 0 mm
12:08 25.3 °C 20.3 °C 1013.1 hPa SW 4 km/h 5.6 km/h 74 % 0 mm
12:18 25.6 °C 20.6 °C 1013.8 hPa WSW 2.3 km/h 5.6 km/h 74 % 0 mm
12:23 25.7 °C 20.1 °C 1012.8 hPa SSW 3.7 km/h 7.4 km/h 71 % 0 mm
12:28 26.1 °C 20.4 °C 1013.4 hPa West 5.1 km/h 7.4 km/h 71 % 0 mm
12:33 26.2 °C 19.8 °C 1013.4 hPa West 7.2 km/h 9.3 km/h 68 % 0 mm
12:38 26.3 °C 19.9 °C 1013.8 hPa West 6 km/h 7.4 km/h 68 % 0 mm
12:43 26.4 °C 19.6 °C 1013.8 hPa WNW 6.3 km/h 9.7 km/h 66 % 0 mm
12:48 26.4 °C 19.8 °C 1013.4 hPa WNW 5 km/h 7.4 km/h 67 % 0 mm
12:53 26.4 °C 19.8 °C 1014.8 hPa WSW 4.3 km/h 9.3 km/h 67 % 0 mm
13:03 26.2 °C 19.8 °C 1013.4 hPa West 0.8 km/h 5.6 km/h 68 % 0 mm
13:08 26.1 °C 19.5 °C 1013.4 hPa WNW 3.2 km/h 5.6 km/h 67 % 0 mm
13:13 26.1 °C 19.7 °C 1012.8 hPa WSW 5.1 km/h 9.3 km/h 68 % 0 mm
13:18 26.1 °C 20 °C 1014.4 hPa WNW 1.1 km/h 6.4 km/h 69 % 0 mm
13:23 26.1 °C 19.7 °C 1013.4 hPa SSW 3.2 km/h 8 km/h 68 % 0 mm
13:28 26.2 °C 20.1 °C 1014.4 hPa SW 5.6 km/h 9.3 km/h 69 % 0 mm
13:33 26.4 °C 19.8 °C 1014.8 hPa WSW 2.9 km/h 5.6 km/h 67 % 0 mm
13:38 26.6 °C 20.2 °C 1013.4 hPa WSW 3.1 km/h 5.6 km/h 68 % 0 mm
13:43 26.7 °C 20.1 °C 1013.8 hPa SW 0.5 km/h 7.4 km/h 67 % 0 mm
13:48 27 °C 20.3 °C 1010.7 hPa WNW 1.4 km/h 8 km/h 67 % 0 mm
13:54 27.2 °C 20.8 °C 1014.4 hPa West 5.3 km/h 11.1 km/h 68 % 0 mm
13:59 27.3 °C 20.2 °C 1013.4 hPa WNW 4.5 km/h 13 km/h 65 % 0 mm
14:04 27.6 °C 20.2 °C 1012.4 hPa NNE 0.2 km/h 3.7 km/h 64 % 0 mm
14:09 27.7 °C 20.6 °C 1012.4 hPa WNW 3.9 km/h 7.4 km/h 65 % 0 mm
14:14 27.8 °C 20.6 °C 1012.1 hPa NW 0.3 km/h 3.7 km/h 65 % 0 mm
14:19 27.8 °C 19.9 °C 1012.4 hPa WNW 4 km/h 9.7 km/h 62 % 0 mm
14:24 27.9 °C 20 °C 1011.7 hPa NW 3.7 km/h 7.4 km/h 62 % 0 mm
14:29 28.1 °C 20.1 °C 1010.7 hPa NNE 1.1 km/h 3.7 km/h 62 % 0 mm
14:34 28.1 °C 20.2 °C 1013.1 hPa NW 2.4 km/h 5.6 km/h 62 % 0 mm
14:39 28 °C 19.8 °C 1011.1 hPa NNE 5.6 km/h 7.4 km/h 61 % 0 mm
14:44 27.8 °C 20.4 °C 1011.1 hPa NW 1 km/h 5.6 km/h 64 % 0 mm
14:49 27.7 °C 20.3 °C 1011.1 hPa North 0.3 km/h 1.9 km/h 64 % 0 mm
14:54 27.6 °C 20.2 °C 1011.1 hPa WNW 2.3 km/h 7.4 km/h 64 % 0 mm
14:59 27.4 °C 19.8 °C 1011.1 hPa NW 3.2 km/h 7.4 km/h 63 % 0 mm
15:04 27.3 °C 20.1 °C 1013.1 hPa Calm   1.9 km/h 65 % 0 mm
15:07 27.1 °C 20.2 °C 1013.1 hPa WNW 0.8 km/h 3.7 km/h 66 % 0 mm
15:12 26.8 °C 19.9 °C 1012.4 hPa Calm   1.9 km/h 66 % 0 mm
15:17 26.6 °C 19.9 °C 1013.1 hPa WNW 1.1 km/h 3.7 km/h 67 % 0 mm
15:22 26.4 °C 20.2 °C 1011.4 hPa WNW 1.6 km/h 5.6 km/h 69 % 0 mm
15:27 26.3 °C 19.9 °C 1013.1 hPa WNW 1.6 km/h 5.6 km/h 68 % 0 mm
15:32 26.2 °C 19.6 °C 1012.1 hPa WNW 0.2 km/h 3.7 km/h 67 % 0 mm
15:37 26.1 °C 19.2 °C 1012.4 hPa NW 1.8 km/h 5.6 km/h 66 % 0 mm
15:42 26 °C 19.9 °C 1010.7 hPa Calm   1.9 km/h 69 % 0 mm
15:47 25.9 °C 19.3 °C 1011.4 hPa North 2.9 km/h 5.6 km/h 67 % 0 mm
15:52 25.9 °C 18.8 °C 1011.4 hPa WNW 1 km/h 5.6 km/h 65 % 0 mm
15:57 25.8 °C 19.2 °C 1013.1 hPa WNW 5 km/h 5.6 km/h 67 % 0 mm
16:02 25.7 °C 19.1 °C 1013.1 hPa Calm     67 % 0 mm
16:08 25.7 °C 19.1 °C 1013.1 hPa North 3.7 km/h 3.7 km/h 67 % 0 mm
16:13 25.6 °C 19 °C 1013.1 hPa NW 1.3 km/h 1.9 km/h 67 % 0 mm
16:18 25.4 °C 19.1 °C 1013.1 hPa NW 0.8 km/h 3.7 km/h 68 % 0 mm
16:23 25.3 °C 19.2 °C 1013.1 hPa Calm   1.9 km/h 69 % 0 mm
16:28 25.2 °C 19.1 °C 1011.7 hPa WNW 0.3 km/h 5.6 km/h 69 % 0 mm
16:33 25.1 °C 19 °C 1013.1 hPa West 1.6 km/h 3.7 km/h 69 % 0 mm
16:38 25.1 °C 18.9 °C 1013.1 hPa Calm     69 % 0 mm
16:43 25 °C 18.9 °C 1013.1 hPa West 2.6 km/h 5.6 km/h 69 % 0 mm
16:48 24.9 °C 18.9 °C 1012.8 hPa West 1.3 km/h 3.7 km/h 69 % 0 mm
16:53 24.9 °C 18.8 °C 1012.8 hPa West 0.5 km/h 3.2 km/h 69 % 0 mm
16:58 24.8 °C 18.7 °C 1014.8 hPa Calm     69 % 0 mm
17:03 24.7 °C 18.6 °C 1013.4 hPa Calm     69 % 0 mm
17:08 24.6 °C 18.6 °C 1013.4 hPa Calm     69 % 0 mm
17:13 24.6 °C 18.5 °C 1013.1 hPa Calm     69 % 0 mm
17:18 24.5 °C 18.7 °C 1013.8 hPa Calm     70 % 0 mm
17:23 24.4 °C 18.6 °C 1014.1 hPa Calm     70 % 0 mm
17:28 24.3 °C 18.5 °C 1013.4 hPa Calm     70 % 0 mm
17:33 24.3 °C 18.7 °C 1013.4 hPa Calm     71 % 0 mm
17:38 24.2 °C 18.8 °C 1013.8 hPa Calm     72 % 0 mm
17:43 24.1 °C 18.9 °C 1014.1 hPa Calm     73 % 0 mm
17:53 23.9 °C 19 °C 1009.4 hPa Calm     74 % 0 mm
17:58 23.8 °C 19.1 °C 1014.1 hPa Calm     75 % 0 mm
18:03 23.7 °C 19.2 °C 1013.8 hPa Calm     76 % 0 mm
18:08 23.6 °C 19.3 °C 1013.8 hPa Calm     77 % 0 mm
18:13 23.3 °C 19.3 °C 1012.8 hPa Calm     78 % 0 mm
18:19 23.2 °C 19.3 °C 1013.1 hPa Calm     79 % 0 mm
18:24 23 °C 19.2 °C 1015.5 hPa Calm     79 % 0 mm
18:34 22.7 °C 19.1 °C 1014.1 hPa Calm     80 % 0 mm
18:39 22.5 °C 19.1 °C 1014.1 hPa Calm     81 % 0 mm
18:44 22.3 °C 19.1 °C 1015.1 hPa Calm     82 % 0 mm
18:45 22.3 °C 18.8 °C 1014.4 hPa West 0.3 km/h 1.9 km/h 81 % 0 mm
18:50 22.1 °C 18.9 °C 1014.4 hPa Calm   1.9 km/h 82 % 0 mm
18:55 21.9 °C 18.7 °C 1014.1 hPa Calm     82 % 0 mm
19:00 21.7 °C 18.5 °C 1014.1 hPa Calm     82 % 0 mm
19:05 21.5 °C 18.5 °C 1015.1 hPa Calm     83 % 0 mm
19:10 21.3 °C 18.3 °C 1014.8 hPa West 0.6 km/h 1.9 km/h 83 % 0 mm
19:20 21.1 °C 18.1 °C 1015.1 hPa Calm     83 % 0 mm
19:25 21 °C 18.2 °C 1014.8 hPa Calm     84 % 0 mm
19:30 20.8 °C 18.1 °C 1015.1 hPa Calm     84 % 0 mm
19:35 20.7 °C 17.9 °C 1014.8 hPa Calm     84 % 0 mm
19:40 20.6 °C 17.8 °C 1014.8 hPa Calm     84 % 0 mm
19:45 20.4 °C 17.8 °C 1014.8 hPa Calm     85 % 0 mm
19:50 20.3 °C 17.9 °C 1012.4 hPa Calm     86 % 0 mm
19:55 20.2 °C 17.6 °C 1011.1 hPa Calm     85 % 0 mm
20:00 20.1 °C 17.7 °C 1015.1 hPa Calm     86 % 0 mm
20:05 20 °C 17.6 °C 1015.1 hPa Calm     86 % 0 mm
20:10 19.9 °C 17.7 °C 1008.7 hPa Calm     87 % 0 mm
20:15 19.8 °C 17.6 °C 1009.7 hPa Calm     87 % 0 mm
20:20 19.7 °C 17.5 °C 1010.7 hPa Calm     87 % 0 mm
20:25 19.6 °C 17.4 °C 1012.1 hPa Calm     87 % 0 mm
20:30 19.5 °C 17.3 °C 1009 hPa Calm   1.9 km/h 87 % 0 mm
20:35 19.4 °C 17.4 °C 1011.1 hPa Calm     88 % 0 mm
20:40 19.3 °C 17.3 °C 1014.8 hPa Calm   1.9 km/h 88 % 0 mm
20:45 19.3 °C 17.2 °C 1008.4 hPa Calm   1.9 km/h 88 % 0 mm
20:51 19.2 °C 17.2 °C 1011.1 hPa Calm     88 % 0 mm
20:55 19.1 °C 17.1 °C 1010.7 hPa Calm     88 % 0 mm
21:01 19.1 °C 17 °C 1010.7 hPa Calm     88 % 0 mm
21:06 19 °C 17.2 °C 1009 hPa Calm     89 % 0 mm
21:11 18.9 °C 17.1 °C 1009.7 hPa Calm     89 % 0 mm
21:16 18.9 °C 17.1 °C 1006.7 hPa Calm     89 % 0 mm
21:21 18.8 °C 16.9 °C 1008 hPa Calm     89 % 0 mm
21:26 18.7 °C 16.9 °C 1006 hPa Calm     89 % 0 mm
21:31 18.7 °C 17 °C 1005 hPa Calm     90 % 0 mm
21:36 18.6 °C 16.9 °C 1007.3 hPa Calm     90 % 0 mm
21:38 18.6 °C 16.9 °C 1007.3 hPa Calm     90 % 0 mm
21:43 18.5 °C 16.8 °C 1016.1 hPa Calm     90 % 0 mm
21:48 18.4 °C 16.8 °C 1010.7 hPa Calm     90 % 0 mm
21:53 18.4 °C 16.7 °C 1015.1 hPa Calm     90 % 0 mm
21:58 18.3 °C 16.7 °C 1005.6 hPa Calm     90 % 0 mm
22:03 18.3 °C 16.8 °C 1009 hPa Calm     91 % 0 mm
22:08 18.2 °C 16.5 °C 1016.1 hPa Calm     90 % 0 mm
22:13 18.1 °C 16.6 °C 1007.7 hPa Calm     91 % 0 mm
22:18 18.1 °C 16.6 °C 1011.1 hPa Calm     91 % 0 mm
22:23 18 °C 16.5 °C 1013.8 hPa Calm     91 % 0 mm
22:28 17.9 °C 16.4 °C 1011.4 hPa Calm     91 % 0 mm
22:33 17.9 °C 16.4 °C 1014.8 hPa Calm     91 % 0 mm
22:38 17.8 °C 16.3 °C 1009.7 hPa Calm     91 % 0 mm
22:43 17.8 °C 16.3 °C 1009.4 hPa Calm   1.9 km/h 91 % 0 mm
22:48 17.7 °C 16.2 °C 1015.1 hPa Calm     91 % 0 mm
22:53 17.7 °C 16.2 °C 1015.8 hPa Calm     91 % 0 mm
22:59 17.6 °C 16.1 °C 1014.1 hPa Calm     91 % 0 mm
23:04 17.6 °C 16.1 °C 1010.4 hPa Calm     91 % 0 mm
23:09 17.5 °C 16 °C 1008.7 hPa Calm   1.6 km/h 91 % 0 mm
23:16 17.4 °C 16.1 °C 1017.8 hPa Calm     92 % 0 mm
23:21 17.4 °C 16.1 °C 1014.8 hPa Calm     92 % 0 mm
23:22 17.4 °C 16.1 °C 1009 hPa Calm     92 % 0 mm
23:24 17.4 °C 16.2 °C 1012.1 hPa Calm     93 % 0 mm
23:27 17.4 °C 16.2 °C 1017.8 hPa Calm     93 % 0 mm
23:32 17.3 °C 16.2 °C 1015.1 hPa Calm     93 % 0 mm
23:37 17.3 °C 16.2 °C 1011.7 hPa Calm     93 % 0 mm
23:39 17.3 °C 16.2 °C 1009.7 hPa Calm     93 % 0 mm
23:44 17.3 °C 16.2 °C 1012.8 hPa Calm     93 % 0 mm
23:49 17.3 °C 16.1 °C 1017.5 hPa Calm     93 % 0 mm
23:54 17.3 °C 16.1 °C 1015.1 hPa Calm   1.9 km/h 93 % 0 mm
23:59 17.2 °C 16.1 °C 1017.8 hPa Calm     93 % 0 mm
Crab Meadow Weather
Compliments of Weather Underground - 3 mb

Script developed by  Jim McMurry - jmcmurry@mwt.net Adapted for the template by  Wim van der Kuil - Leuven-Template.eu

Recycling: Americans throw away 25,000,000,000 Styrofoam coffee cups every year.